SCP
0 0 0 0 0 0 0 0 0 0 0 0 0 0 0 0 0 0 0 0 0 0 0 0 0 0 0 0 0 0 0 1 1 1 1 1 1 1 2 2 2 2 2
0 0 0 0 0 0 0 0 0 0 0 0 0 0 0 0 0 0 0 0 0 0 0 0 0 0 0 0 0 0 0 1 1 1 2 2 1 1 2 2 2 2 2
0 0 0 0 0 0 0 0 0 0 0 0 0 0 0 0 0 0 0 0 0 0 0 0 0 0 0 0 0 0 0 0 1 1 2 2 2 2 2 2 2 2 2
0 0 0 0 0 0 0 0 0 0 0 0 0 0 0 0 0 0 0 0 0 0 0 0 0 0 0 0 0 0 0 0 0 1 1 1 2 2 2 2 2 2 2
0 0 0 0 0 0 0 0 0 0 0 0 -0 0 0 0 0 0 0 0 0 0 0 0 0 0 0 0 0 0 0 0 0 0 1 1 1 2 2 2 2 2 2
0 0 0 0 0 0 0 0 0 0 0 0 -0 0 0 0 0 0 0 0 0 0 0 0 0 0 0 0 0 0 0 0 0 0 0 1 1 1 2 2 2 2 2
0 0 0 0 0 0 0 0 0 0 0 0 0 0 0 0 0 0 0 0 0 0 0 0 0 0 0 0 0 0 0 0 0 0 0 0 1 1 2 2 2 2 2
0 0 0 0 0 0 0 0 0 0 0 0 0 0 0 0 0 0 0 0 0 0 0 0 0 0 0 0 0 0 0 0 0 0 0 0 0 1 1 2 2 2 2
0 0 0 0 0 0 0 0 0 0 0 0 0 0 0 0 0 0 0 0 0 0 0 0 0 0 0 0 -0 0 0 0 0 0 0 0 0 0 1 1 2 2 2
0 0 0 0 0 0 0 0 0 0 0 0 0 0 0 0 0 0 0 0 0 0 0 0 0 0 0 0 -0 0 0 0 0 0 0 0 0 0 0 1 1 2 2
0 0 0 0 0 0 0 0 0 0 0 0 0 0 0 0 0 0 0 0 0 0 0 0 0 0 0 0 -0 0 0 0 0 0 0 0 0 0 0 0 1 1 2
0 0 0 0 0 0 0 0 0 0 0 0 0 0 0 0 0 0 0 0 0 0 0 0 0 0 0 0 0 0 0 0 0 0 0 0 0 0 0 0 1 1 1
0 0 0 0 0 0 0 0 0 0 0 0 0 0 0 0 0 0 0 0 0 0 0 0 0 0 0 0 0 0 0 0 0 0 0 0 0 0 0 0 0 1 1
0 0 0 0 0 0 0 0 0 0 0 0 0 0 0 0 0 0 0 0 0 0 0 0 0 0 0 0 0 0 0 0 0 0 0 0 1 0 0 0 0 1 1
0 0 0 0 0 0 0 0 0 0 0 0 0 0 0 0 0 0 0 0 0 0 0 0 0 0 0 0 0 0 0 0 0 0 0 1 1 1 1 1 1 1 1
0 0 0 0 0 0 0 0 0 0 0 0 0 0 0 0 0 0 0 0 0 0 0 0 0 0 0 0 0 0 0 0 0 0 0 0 1 1 1 1 1 1 1
0 0 0 0 0 0 0 0 0 0 0 0 0 0 0 0 0 0 0 0 0 0 0 0 0 0 0 0 0 0 0 0 0 0 0 0 0 0 1 1 1 1 1
0 0 0 0 0 0 0 0 0 0 0 0 0 0 0 0 0 0 0 0 0 0 0 0 0 0 0 0 0 0 0 0 0 0 0 0 0 0 0 1 1 1 0
0 0 0 0 0 0 0 0 0 0 0 0 0 0 0 0 0 0 0 0 0 0 0 0 0 0 0 0 0 0 0 0 0 0 0 0 0 0 0 0 0 0 0
0 0 0 0 0 0 0 0 0 0 0 0 0 0 0 0 0 0 0 0 0 0 0 0 0 0 0 0 0 0 0 0 0 0 0 0 0 0 0 0 0 0 0
0 0 0 0 0 0 0 0 0 0 0 0 0 0 0 0 0 0 0 0 0 0 0 0 0 0 0 0 0 0 0 0 0 0 0 0 0 0 0 0 0 0 0
0 0 0 0 0 0 0 0 0 0 0 0 0 0 0 0 0 0 0 0 0 0 0 0 0 0 0 0 0 0 0 0 0 0 0 0 0 0 0 0 0 0 0
0 0 0 0 0 0 0 0 0 0 0 0 0 0 0 0 0 0 0 0 0 0 0 0 0 0 0 0 0 0 0 0 0 0 0 0 0 0 0 0 0 0 0
0 0 0 0 0 0 0 0 0 0 0 0 0 0 0 0 0 0 0 0 0 0 0 0 0 0 0 0 0 0 0 0 0 0 0 0 0 0 0 0 0 0 0
0 0 0 0 0 0 0 0 0 0 0 0 0 0 0 0 0 0 0 0 0 0 0 0 0 0 0 0 0 0 0 0 0 0 0 0 0 0 0 0 0 0 0
0 0 0 0 0 0 0 0 0 0 0 0 0 0 0 0 0 0 0 0 0 0 0 0 0 0 0 0 0 0 0 0 0 0 0 0 0 0 0 0 0 0 0
Wind_Speed
3 3 2 2 3 3 4 4 4 5 5 6 6 7 7 7 7 7 6 14 19 20 21 20 20 20 20 20 21 22 22 20 16 14 14 15 17 19 22 24 25 25 23
3 2 2 2 3 3 3 3 5 5 5 5 6 6 7 7 7 8 7 9 16 19 20 21 21 21 21 21 22 22 23 23 20 17 16 16 17 19 22 25 26 26 25
3 2 2 2 2 2 3 3 4 4 5 5 6 7 6 7 8 9 8 6 6 12 16 19 21 22 22 23 23 23 24 24 23 20 18 17 17 18 21 25 27 27 26
3 2 2 2 2 2 2 3 3 4 4 5 6 6 6 7 10 9 7 6 5 5 9 17 19 21 22 24 24 24 25 25 25 24 21 19 18 19 21 24 28 29 28
4 3 2 1 1 1 1 3 3 3 5 6 6 6 6 8 9 9 7 7 6 5 5 10 14 16 21 23 24 24 25 25 26 26 24 22 20 20 21 23 28 31 31
5 3 2 1 1 1 1 2 3 4 4 6 8 8 8 10 9 6 6 4 3 5 5 6 6 8 16 21 23 24 25 26 26 26 26 26 24 22 22 23 27 31 33
6 4 3 2 1 1 1 2 3 4 4 4 5 6 7 8 7 2 2 4 5 6 5 5 4 5 7 18 22 25 27 28 29 28 28 27 27 25 24 24 26 31 34
7 5 5 3 2 1 1 2 3 2 3 3 3 5 7 7 4 5 6 6 6 4 3 6 7 8 7 6 13 25 27 28 29 30 30 30 30 29 28 27 27 30 34
7 6 6 4 3 3 2 3 2 3 3 3 2 2 3 5 7 6 5 5 3 3 5 6 8 7 8 7 8 16 24 27 29 31 32 32 32 32 31 30 29 30 34
7 7 6 5 4 3 4 4 3 3 3 3 3 3 4 3 5 9 5 4 5 7 6 7 7 7 9 8 11 19 23 27 30 31 32 33 33 33 33 33 31 31 33
7 7 7 6 5 4 4 4 3 3 3 4 3 3 3 4 6 7 12 9 6 5 5 6 6 7 9 10 11 17 27 31 32 32 33 34 34 35 34 34 34 33 33
6 8 7 6 5 4 4 4 4 4 4 5 4 4 4 4 4 5 10 17 17 9 7 6 7 7 8 10 15 23 28 32 34 34 34 35 35 36 36 36 36 36 34
5 7 6 6 5 5 4 3 3 4 5 6 5 5 5 6 5 6 11 14 18 17 9 6 6 7 9 9 10 21 24 31 34 35 36 36 36 36 37 37 37 37 36
6 8 7 6 5 5 4 4 4 4 4 5 7 6 5 6 5 6 8 11 17 18 15 11 4 6 6 7 14 28 20 30 34 36 38 38 38 38 37 38 38 37 36
6 8 7 6 5 5 5 4 4 4 5 5 6 7 7 6 6 6 7 9 12 16 25 18 7 3 4 7 17 16 18 28 35 38 40 40 40 39 39 38 39 38 38
8 8 7 6 5 5 4 4 4 4 5 6 6 7 8 6 6 7 8 9 11 15 21 21 16 12 11 14 21 19 19 33 37 39 41 41 41 40 39 39 38 38 38
9 8 7 6 6 5 4 4 4 5 6 7 8 9 11 10 9 8 8 10 11 13 20 24 20 18 19 17 16 16 18 20 21 36 40 40 40 39 38 37 37 37 37
8 8 7 6 5 5 4 4 5 6 7 9 9 10 12 10 12 10 10 12 13 14 17 25 23 19 22 19 18 19 19 19 19 31 38 40 40 39 38 37 36 35 34
8 8 7 6 6 5 4 5 5 6 8 9 10 11 12 13 14 11 13 14 13 14 15 19 23 19 18 17 19 20 21 19 21 25 33 36 37 37 37 37 35 33 30
9 8 8 7 6 5 5 6 7 8 8 10 11 13 13 14 15 14 14 15 15 16 17 18 19 19 18 17 17 16 18 15 16 17 22 24 27 29 31 33 34 31 30
9 8 7 6 5 5 5 7 8 8 10 11 13 14 15 16 20 19 16 15 16 16 16 17 19 18 17 16 16 14 17 15 16 14 15 16 14 13 15 22 27 29 31
9 8 7 7 6 5 10 13 10 8 10 12 13 14 15 16 19 26 29 29 27 23 20 19 19 21 21 19 17 16 16 17 18 9 11 14 11 11 11 13 21 26 30
9 9 8 7 6 7 12 12 13 10 10 11 13 14 13 13 16 18 23 29 28 31 33 27 25 25 24 21 21 21 19 19 19 14 14 18 13 14 12 15 26 26 26
9 8 7 6 5 6 10 11 13 10 10 12 13 15 16 17 16 20 21 21 22 22 26 23 23 25 24 22 22 23 22 22 21 16 15 19 16 14 14 13 24 29 26
8 7 6 5 5 6 9 11 12 6 8 12 13 14 16 18 24 29 23 22 24 21 25 33 36 35 38 39 32 20 18 18 19 16 11 16 16 14 14 14 18 27 28
8 6 5 5 5 5 9 11 12 5 6 10 11 12 16 20 27 30 22 21 24 23 22 22 25 28 27 27 34 26 19 18 17 15 11 13 15 11 11 10 9 10 14
Wind_Direction
83 68 65 43 34 25 14 350 339 337 331 326 323 322 320 315 307 304 306 309 313 315 315 314 312 309 306 302 297 293 289 284 275 267 259 251 243 231 218 207 201 199 198
96 85 72 50 47 26 360 333 328 326 318 315 312 312 306 301 299 299 298 306 310 314 317 317 316 314 311 307 302 297 291 286 281 271 261 254 247 237 224 213 206 202 200
109 110 97 72 60 12 346 332 328 323 318 319 314 308 301 297 292 290 289 287 296 307 313 318 320 318 316 313 308 302 296 290 286 280 270 259 250 242 231 219 210 205 203
129 129 115 97 64 22 354 331 320 326 318 314 306 299 296 288 282 278 275 275 279 286 299 305 311 312 313 311 308 304 300 295 289 285 280 269 257 249 239 227 216 208 205
153 146 130 127 77 39 349 321 332 332 314 308 300 293 289 282 276 274 267 265 263 264 268 293 302 303 307 307 307 306 303 299 294 289 285 279 268 257 247 236 223 213 207
162 157 156 157 93 35 325 325 324 310 297 297 304 297 284 278 269 261 260 270 289 294 298 300 300 298 305 310 310 309 307 305 300 294 288 284 277 267 255 245 232 221 211
164 168 161 160 163 214 289 317 307 308 308 309 312 304 290 275 268 255 327 326 301 289 289 298 306 310 312 311 311 309 306 306 304 301 296 289 283 276 266 254 242 230 218
171 175 168 167 173 195 278 281 288 305 306 335 336 321 328 326 345 344 301 277 276 289 318 322 312 298 293 291 294 300 301 300 300 300 299 297 290 283 275 264 251 239 226
172 168 169 168 176 188 221 244 258 263 272 303 282 295 312 306 311 281 273 279 280 326 305 292 288 293 298 297 294 295 295 293 293 292 292 292 292 288 281 273 261 247 234
173 171 170 171 179 191 212 229 232 226 240 262 279 242 233 265 301 307 282 254 291 286 276 291 298 299 301 300 295 296 294 291 290 288 287 286 285 286 284 278 270 256 241
176 172 168 169 180 194 209 219 234 233 224 231 239 259 268 267 247 273 295 295 278 260 279 286 291 293 294 290 289 289 291 291 290 288 285 283 281 279 279 280 275 265 250
175 173 168 170 179 190 205 213 224 236 239 242 241 236 237 245 255 262 286 302 303 296 282 268 273 278 279 281 282 286 288 289 288 285 283 280 278 276 274 274 274 269 258
172 176 167 169 176 187 195 203 223 235 239 243 242 242 242 246 251 261 276 289 295 298 285 256 244 256 276 280 285 289 287 288 287 285 283 279 275 273 271 269 269 268 263
166 159 157 161 171 182 198 206 221 231 238 245 253 252 253 252 250 252 264 283 294 296 291 277 250 242 268 285 292 295 293 290 289 286 283 279 276 271 269 266 264 264 262
151 150 152 162 176 188 199 208 221 234 241 248 254 257 258 256 252 251 255 259 271 289 295 296 297 245 285 290 288 288 286 287 287 286 284 281 277 272 268 265 261 260 259
149 151 159 169 181 192 201 211 228 239 248 253 257 260 262 263 261 257 256 255 255 264 277 288 291 292 291 287 286 285 285 285 285 283 280 277 274 271 267 264 259 257 257
156 160 164 172 183 194 201 216 233 246 256 262 263 265 267 267 267 263 260 258 256 257 268 280 286 291 291 288 286 281 279 278 276 276 275 273 270 268 265 262 258 255 256
158 158 161 172 186 198 204 221 243 251 257 264 266 268 270 272 268 266 264 262 261 259 264 275 282 286 286 287 286 282 282 278 275 276 275 272 268 265 262 259 257 252 252
157 160 164 178 190 201 211 228 241 253 257 262 266 268 271 272 271 268 268 267 266 266 264 270 276 280 281 282 283 280 277 275 273 271 272 270 264 261 259 257 254 248 248
161 165 173 179 188 204 224 239 249 255 258 263 266 268 270 269 272 272 271 269 269 270 267 268 271 275 275 276 274 277 279 275 275 278 276 273 268 261 259 257 252 245 243
163 162 166 176 191 207 225 234 244 254 262 268 271 272 272 271 272 274 274 273 272 271 270 270 271 273 272 274 272 274 277 282 280 278 280 274 268 262 262 258 249 241 239
159 163 175 184 201 217 236 246 252 259 272 277 280 280 278 275 275 279 280 280 278 277 276 273 273 271 273 272 272 270 274 278 281 276 279 282 284 276 271 266 260 246 236
164 173 181 190 208 230 248 260 270 277 279 281 282 283 282 281 282 282 283 284 282 278 275 274 274 273 275 274 273 271 269 269 272 277 288 285 279 276 271 271 269 265 246
169 175 182 191 208 238 259 271 280 283 283 281 281 283 286 288 288 290 289 286 283 279 276 273 270 271 270 269 267 268 270 271 271 267 263 272 274 272 272 269 269 264 256
166 170 170 181 211 247 270 280 284 276 278 285 286 287 289 292 294 298 298 294 291 287 285 280 275 273 270 267 263 260 257 258 263 263 251 260 269 275 274 269 262 256 246
156 161 174 186 209 236 267 276 287 275 281 290 291 290 292 295 299 303 301 297 295 295 292 288 282 278 274 270 268 261 259 260 262 264 249 252 262 266 276 263 263 267 239